Location: Fort Wayne
(41.1310°N, 85.1290°W)
Time: 01:57:48
(UTC-04:00)

COSMOS 2406 - Visible Passes

Search period start: 28 May 2015 00:00
Search period end: 07 June 2015 00:00
Orbit: 845 x 864 km, 71.0° (Epoch: 27 May)

Date Brightness Start Highest point End Pass type
(mag) Time Alt. Az. Time Alt. Az. Time Alt. Az.
28 May 4.3 02:21:08 31° ESE 02:21:29 31° ESE 02:26:32 10° NE visible
28 May 4.1 04:03:12 26° WSW 04:05:45 38° WNW 04:11:03 10° N visible
29 May 4.3 02:10:08 32° ESE 02:10:17 32° ESE 02:15:21 10° NE visible
29 May 4.1 03:52:12 27° WSW 03:54:34 37° WNW 03:59:51 10° N visible
30 May 4.2 01:59:07 33° ESE 01:59:07 33° ESE 02:04:10 10° NE visible
30 May 4.2 03:41:11 27° W 03:43:22 37° WNW 03:48:38 10° N visible
31 May 4.2 01:48:03 33° ESE 01:48:03 33° ESE 01:52:59 10° NE visible
31 May 4.2 03:30:07 28° W 03:32:11 36° WNW 03:37:25 10° N visible
01 Jun 4.2 01:36:57 34° E 01:36:57 34° E 01:41:49 10° NE visible
01 Jun 4.3 03:19:01 28° W 03:20:59 36° WNW 03:26:13 10° N visible
02 Jun 4.1 01:25:49 34° E 01:25:49 34° E 01:30:38 10° NE visible
02 Jun 4.3 03:07:53 28° W 03:09:48 35° WNW 03:15:00 10° N visible
03 Jun 4.1 01:14:39 35° E 01:14:39 35° E 01:19:27 10° NE visible
03 Jun 4.3 02:56:42 28° W 02:58:37 34° WNW 03:03:47 10° N visible
04 Jun 4.1 01:03:26 36° E 01:03:26 36° E 01:08:15 10° NE visible
04 Jun 4.4 02:45:30 27° W 02:47:25 34° WNW 02:52:34 10° N visible
05 Jun 4.0 00:52:12 36° E 00:52:12 36° E 00:57:04 10° NE visible
05 Jun 4.4 02:34:15 27° W 02:36:13 33° WNW 02:41:21 10° N visible
06 Jun 3.9 00:40:54 37° E 00:40:54 37° E 00:45:53 10° NE visible
06 Jun 4.5 02:22:57 26° W 02:25:02 33° WNW 02:30:08 10° N visible
